[[{"header":{"parameterUnit":"m.s-1","parameterCategory":1,"la1":30.2991,"la2":30.254,"lo1":-89.0895,"lo2":-89.0444,"dy":0.0017,"dx":0.0017,"nx":28,"ny":28,"refTime":"2024-12-01T03:00:00:Z","depth":0,"parameterNumber":2,"parameterNumberName":"U-component_of_WINDS"},"data":[0,0,0,0,0,0,0,0,0,0,0,0,0,0,0,0,0,0,0,0,0,0,0,0,0,0,0,0,0,0,0,0,0,0,0,0,0,0,0,0,0,0,0,0,0,0,0,0,0,0,0,0,0,0,0,0,0,0,-0.2305,-0.2304,0,-0.2239,-0.2238,-0.2238,-0.2162,-0.2161,-0.216,-0.2159,-0.2092,-0.2091,-0.209,0,0,0,0,0,0,0,0,0,0,0,0,0,-0.2366,-0.2365,-0.2305,-0.2304,-0.2303,-0.2239,-0.2238,-0.2237,-0.2163,-0.2161,-0.216,-0.2159,-0.2092,-0.2091,-0.209,0,0,0,0,0,0,0,0,0,0,0,0,0,-0.2324,-0.2365,-0.2305,-0.2258,-0.2253,-0.2239,-0.2238,-0.2237,-0.2163,-0.2161,-0.216,-0.2158,-0.2092,-0.2091,-0.209,-0.2117,0,0,-0.2087,-0.2086,0,0,0,0,0,0,0,0,-0.2326,-0.2322,-0.2266,-0.2261,-0.2256,-0.2207,-0.2235,-0.2197,-0.2163,-0.2197,-0.2159,-0.2157,-0.2132,-0.2127,-0.2118,-0.2114,-0.2111,-0.2087,-0.2086,-0.2085,-0.2085,0,0,0,0,0,0,0,-0.2329,-0.2324,-0.2279,-0.2265,-0.2259,-0.224,-0.2233,-0.2227,-0.2175,-0.2194,-0.2189,-0.2182,-0.2128,-0.212,-0.2116,-0.211,-0.2087,-0.2086,-0.2085,-0.2084,-0.2125,-0.2126,0,0,0,0,0,0,-0.2339,-0.2327,-0.2281,-0.2277,-0.2288,-0.2241,-0.2232,-0.2225,-0.2175,-0.2165,-0.2183,-0.2179,-0.2122,-0.2118,-0.2114,-0.2143,-0.2085,-0.2084,-0.2084,-0.2123,-0.2125,-0.2127,0,0,0,0,0,0,-0.2341,-0.2336,-0.2284,-0.23,-0.2292,-0.2242,-0.2234,-0.2224,-0.2215,-0.2166,-0.2157,-0.2184,-0.2121,-0.2115,-0.2117,-0.214,-0.2084,-0.2083,-0.2121,-0.2124,-0.2126,-0.2202,0,0,0,0,0,0,-0.2343,-0.2337,-0.2347,-0.2301,-0.2292,-0.2288,-0.2235,-0.2224,-0.2214,-0.2207,-0.2164,-0.2156,-0.2119,-0.2119,-0.2116,-0.2137,-0.2082,-0.2119,-0.2122,-0.2125,-0.2197,-0.2207,-0.2215,0,0,0,0,0,-0.2345,-0.237,-0.2347,-0.2342,-0.2303,-0.229,-0.2284,-0.2242,-0.2216,-0.2225,-0.2194,-0.2157,-0.2137,-0.212,-0.2116,-0.2137,-0.2117,-0.2121,-0.2125,-0.2193,-0.2205,-0.2215,0,0,0,0,0,0,-0.242,-0.2363,-0.2338,-0.2349,-0.2325,-0.2277,-0.2288,-0.2255,-0.2238,-0.2233,-0.218,-0.2171,-0.218,-0.2158,-0.2139,-0.2161,-0.2122,-0.2125,-0.2175,-0.2186,-0.2194,-0.2201,-0.2081,0,0,0,0,0,-0.2437,-0.2432,-0.2382,-0.2397,-0.2386,-0.2339,-0.2332,-0.2301,-0.2274,-0.2264,-0.2232,-0.2207,-0.2195,-0.2189,-0.2175,-0.2192,-0.2183,-0.2205,-0.2214,-0.2221,-0.2226,-0.2235,-0.2245,-0.214,-0.214,-0.214,0,0,-0.2474,-0.2442,-0.2442,-0.2411,-0.2389,-0.2385,-0.2331,-0.2328,-0.2325,-0.2263,-0.2264,-0.2239,-0.2208,-0.2218,-0.2221,-0.2201,-0.2252,-0.2226,-0.2233,-0.2233,-0.224,-0.225,-0.2259,-0.2143,-0.2142,-0.2142,0,0,-0.2539,-0.2514,-0.2524,-0.2503,-0.247,-0.2438,-0.2441,-0.2398,-0.238,-0.2379,-0.2333,-0.2327,-0.2308,-0.2288,-0.2275,-0.2332,-0.2299,-0.2329,-0.2377,-0.2386,-0.2394,-0.2402,-0.2424,-0.2432,-0.2333,-0.2333,-0.2333,0,-0.2589,-0.2581,-0.2533,-0.2534,-0.2522,-0.2465,-0.2476,-0.2457,-0.2421,-0.2415,-0.2392,-0.2366,-0.2341,-0.2347,-0.2361,-0.2351,-0.2354,-0.2335,-0.2397,-0.2404,-0.241,-0.243,-0.2439,-0.2337,-0.2337,-0.2336,-0.2336,0,-0.2644,-0.2639,-0.2651,-0.2619,-0.2608,-0.2613,-0.2567,-0.2561,-0.2531,-0.2502,-0.2503,-0.247,-0.245,-0.2448,-0.2418,-0.2449,-0.2438,-0.2407,-0.2367,-0.2425,-0.2443,-0.2451,-0.2343,-0.2342,-0.234,-0.2339,0,0,-0.2757,-0.2697,-0.2703,-0.2688,-0.2647,-0.2642,-0.2645,-0.2624,-0.2622,-0.2598,-0.26,-0.2585,-0.2556,-0.2541,-0.2508,-0.2516,-0.2566,-0.2484,-0.2483,-0.2503,-0.2601,-0.2627,-0.2637,-0.2542,-0.2544,-0.2545,-0.2604,0,-0.2816,-0.2818,-0.2775,-0.2789,-0.2785,-0.273,-0.2733,-0.2708,-0.2681,-0.2673,-0.2642,-0.2633,-0.2594,-0.2585,-0.259,-0.2559,-0.2586,-0.2554,-0.2545,-0.2545,-0.2558,-0.2646,-0.2673,-0.2731,-0.2611,-0.2612,-0.2613,0,-0.2886,-0.2868,-0.2882,-0.2841,-0.2837,-0.284,-0.2819,-0.2811,-0.2782,-0.2762,-0.2746,-0.2708,-0.2708,-0.2669,-0.2669,-0.2649,-0.2642,-0.2626,-0.2627,-0.2627,-0.2585,-0.2651,-0.2748,-0.2758,-0.2624,-0.2623,-0.2622,0,-0.297,-0.2948,-0.2954,-0.2942,-0.2894,-0.2898,-0.2878,-0.2847,-0.2838,-0.2818,-0.2812,-0.2793,-0.2783,-0.2769,-0.2728,-0.2703,-0.2734,-0.269,-0.2718,-0.2719,-0.2729,-0.273,-0.283,-0.2721,-0.272,-0.272,-0.272,0,-0.3043,-0.3054,-0.2991,-0.2995,-0.3006,-0.2956,-0.2968,-0.2942,-0.2915,-0.2914,-0.2864,-0.2864,-0.2808,-0.2801,-0.2768,-0.2774,-0.2769,-0.2754,-0.2745,-0.276,-0.2762,-0.2757,-0.2753,-0.2722,-0.2722,-0.2722,-0.2721,0,-0.3139,-0.3097,-0.31,-0.3054,-0.3043,-0.3053,-0.3014,-0.3016,-0.2985,-0.2983,-0.298,-0.2932,-0.2921,-0.2877,-0.2856,-0.2834,-0.2852,-0.2833,-0.2862,-0.2857,-0.2888,-0.2887,-0.2991,-0.3003,-0.2884,-0.2885,-0.2886,0,-0.319,-0.3197,-0.3152,-0.3147,-0.313,-0.3123,-0.3113,-0.3064,-0.3056,-0.3023,-0.303,-0.3015,-0.3001,-0.2986,-0.295,-0.2933,-0.2916,-0.2953,-0.2913,-0.2928,-0.292,-0.2921,-0.2922,-0.2963,-0.2965,-0.2966,-0.2967,0,-0.3285,-0.3263,-0.3252,-0.3233,-0.3223,-0.3206,-0.3186,-0.3185,-0.313,-0.3124,-0.3112,-0.3102,-0.308,-0.3067,-0.3044,-0.3023,-0.2987,-0.2979,-0.2985,-0.3002,-0.3019,-0.3013,-0.2889,-0.2978,-0.2977,-0.2976,-0.2975,-0.2975,-0.3361,-0.3366,-0.3335,-0.3324,-0.3304,-0.3286,-0.3286,-0.3255,-0.3245,-0.3224,-0.3195,-0.3188,-0.3158,-0.3124,-0.3106,-0.31,-0.308,-0.3088,-0.309,-0.3094,-0.3102,-0.3018,-0.3096,-0.3095,-0.3095,-0.3094,-0.3094,0,-0.3456,-0.3433,-0.3423,-0.3397,-0.3389,-0.3353,-0.3329,-0.3325,-0.3319,-0.3295,-0.3282,-0.327,-0.3256,-0.3218,-0.3201,-0.3204,-0.3187,-0.3201,-0.3202,-0.3199,-0.312,-0.3118,-0.3216,-0.3216,-0.3216,-0.3216,-0.3216,-0.3216,-0.3504,-0.3511,-0.3486,-0.3482,-0.3459,-0.3452,-0.3442,-0.3426,-0.3406,-0.3395,-0.3383,-0.3358,-0.3329,-0.3309,-0.3296,-0.3285,-0.3282,-0.3303,-0.3287,-0.3215,-0.3204,-0.3193,-0.3191,-0.3302,-0.3302,-0.3366,-0.3367,-0.3367]},{"header":{"parameterUnit":"m.s-1","parameterCategory":1,"la1":30.2991,"la2":30.254,"lo1":-89.0895,"lo2":-89.0444,"dy":0.0017,"dx":0.0017,"nx":28,"ny":28,"refTime":"2024-12-01T03:00:00:Z","depth":0,"parameterNumber":3,"parameterNumberName":"V-component_of_WINDS"},"data":[0,0,0,0,0,0,0,0,0,0,0,0,0,0,0,0,0,0,0,0,0,0,0,0,0,0,0,0,0,0,0,0,0,0,0,0,0,0,0,0,0,0,0,0,0,0,0,0,0,0,0,0,0,0,0,0,0,0,-1.2771,-1.2772,0,-1.2828,-1.2829,-1.283,-1.2858,-1.2858,-1.2858,-1.2858,-1.2917,-1.2918,-1.292,0,0,0,0,0,0,0,0,0,0,0,0,0,-1.2687,-1.2689,-1.2771,-1.2772,-1.2773,-1.2828,-1.2829,-1.283,-1.2858,-1.2858,-1.2858,-1.2858,-1.2916,-1.2918,-1.292,0,0,0,0,0,0,0,0,0,0,0,0,0,-1.2732,-1.2689,-1.2771,-1.2793,-1.2796,-1.2828,-1.2829,-1.283,-1.2858,-1.2858,-1.2858,-1.2858,-1.2915,-1.2918,-1.292,-1.2935,0,0,-1.2927,-1.2928,0,0,0,0,0,0,0,0,-1.2729,-1.2735,-1.2789,-1.2792,-1.2795,-1.2836,-1.2821,-1.2865,-1.2858,-1.2834,-1.2858,-1.2858,-1.289,-1.2894,-1.2905,-1.2937,-1.294,-1.2927,-1.2929,-1.293,-1.2931,0,0,0,0,0,0,0,-1.2726,-1.2733,-1.2794,-1.279,-1.2793,-1.2801,-1.2807,-1.283,-1.2861,-1.2836,-1.2838,-1.2845,-1.2891,-1.2903,-1.2907,-1.2941,-1.2927,-1.2929,-1.2931,-1.2932,-1.299,-1.299,0,0,0,0,0,0,-1.272,-1.273,-1.2792,-1.2796,-1.2761,-1.2802,-1.2809,-1.2823,-1.2861,-1.2867,-1.2845,-1.2846,-1.2899,-1.2904,-1.2909,-1.2929,-1.293,-1.2932,-1.2933,-1.299,-1.299,-1.299,0,0,0,0,0,0,-1.2718,-1.2725,-1.279,-1.2763,-1.2772,-1.2804,-1.2818,-1.2824,-1.2835,-1.2868,-1.2873,-1.285,-1.2899,-1.2905,-1.2928,-1.2932,-1.2933,-1.2935,-1.2989,-1.299,-1.299,-1.297,0,0,0,0,0,0,-1.2715,-1.2724,-1.273,-1.2763,-1.2774,-1.2808,-1.2819,-1.2825,-1.2839,-1.2841,-1.2875,-1.288,-1.2899,-1.2925,-1.2931,-1.2935,-1.2937,-1.2989,-1.2989,-1.299,-1.2971,-1.297,-1.2969,0,0,0,0,0,-1.2712,-1.2722,-1.273,-1.2737,-1.2781,-1.2808,-1.2814,-1.2836,-1.2839,-1.2846,-1.2866,-1.2879,-1.293,-1.2927,-1.2934,-1.2939,-1.2989,-1.2989,-1.299,-1.2971,-1.297,-1.2969,0,0,0,0,0,0,-1.2687,-1.2726,-1.2736,-1.2756,-1.2779,-1.2813,-1.2821,-1.2834,-1.2856,-1.2857,-1.2883,-1.289,-1.2911,-1.2927,-1.2922,-1.2956,-1.2961,-1.2963,-1.2944,-1.2944,-1.2943,-1.2939,-1.2939,0,0,0,0,0,-1.2684,-1.2702,-1.2736,-1.2751,-1.2762,-1.2789,-1.2802,-1.2817,-1.2841,-1.2851,-1.2873,-1.2896,-1.2918,-1.2932,-1.2953,-1.2973,-1.2981,-1.298,-1.2979,-1.2978,-1.298,-1.2993,-1.2993,-1.2991,-1.2991,-1.2991,0,0,-1.2678,-1.2702,-1.2711,-1.2746,-1.2765,-1.2785,-1.2797,-1.2816,-1.2831,-1.2854,-1.2877,-1.2894,-1.2922,-1.2944,-1.2955,-1.2958,-1.2982,-1.2979,-1.2978,-1.298,-1.2993,-1.2993,-1.2993,-1.2991,-1.2991,-1.2991,0,0,-1.2676,-1.2696,-1.2711,-1.273,-1.2759,-1.2778,-1.2781,-1.2814,-1.2826,-1.285,-1.2868,-1.2885,-1.2922,-1.2941,-1.2956,-1.2963,-1.2975,-1.2969,-1.2964,-1.2977,-1.2977,-1.2977,-1.298,-1.2981,-1.297,-1.297,-1.297,0,-1.2665,-1.2694,-1.2717,-1.2736,-1.2751,-1.2773,-1.2789,-1.2806,-1.2841,-1.2851,-1.2854,-1.2901,-1.2921,-1.2948,-1.295,-1.2961,-1.2966,-1.2965,-1.2975,-1.2975,-1.2976,-1.298,-1.2981,-1.2969,-1.2969,-1.2969,-1.2969,0,-1.2679,-1.2699,-1.2708,-1.2741,-1.2758,-1.2775,-1.2801,-1.2815,-1.2828,-1.2847,-1.2871,-1.2896,-1.2924,-1.2931,-1.2944,-1.2961,-1.2962,-1.297,-1.2976,-1.2975,-1.2979,-1.298,-1.2968,-1.2968,-1.2968,-1.2969,0,0,-1.2664,-1.271,-1.2713,-1.2729,-1.2762,-1.2778,-1.2797,-1.2824,-1.2836,-1.2859,-1.2876,-1.2906,-1.2914,-1.293,-1.2946,-1.2957,-1.2962,-1.2964,-1.2965,-1.2963,-1.2983,-1.2977,-1.2978,-1.2971,-1.2971,-1.2971,-1.2981,0,-1.2668,-1.2702,-1.2724,-1.2749,-1.2769,-1.279,-1.2806,-1.2829,-1.2847,-1.2866,-1.2886,-1.2908,-1.2916,-1.2926,-1.2937,-1.2959,-1.2966,-1.2959,-1.2987,-1.2988,-1.298,-1.298,-1.2974,-1.2982,-1.2982,-1.2982,-1.2983,0,-1.2677,-1.27,-1.2728,-1.276,-1.2769,-1.2783,-1.2811,-1.2829,-1.2855,-1.2867,-1.2886,-1.2903,-1.2924,-1.2927,-1.2957,-1.2952,-1.2965,-1.2977,-1.2978,-1.2982,-1.2985,-1.2985,-1.2985,-1.2986,-1.2985,-1.2985,-1.2985,0,-1.2664,-1.2702,-1.2724,-1.2736,-1.2775,-1.2784,-1.2801,-1.2827,-1.2843,-1.2866,-1.2877,-1.2902,-1.2916,-1.2936,-1.2959,-1.296,-1.2987,-1.2993,-1.2999,-1.2998,-1.3004,-1.3004,-1.3007,-1.3011,-1.3011,-1.3011,-1.3011,0,-1.2667,-1.2683,-1.2718,-1.2732,-1.2751,-1.2776,-1.2795,-1.2813,-1.2836,-1.2854,-1.2874,-1.289,-1.292,-1.294,-1.2958,-1.298,-1.2986,-1.2998,-1.3002,-1.2996,-1.2995,-1.3006,-1.3006,-1.3011,-1.3011,-1.3011,-1.3011,0,-1.2655,-1.268,-1.2705,-1.274,-1.2749,-1.2761,-1.2791,-1.2805,-1.2824,-1.2847,-1.2854,-1.2884,-1.2908,-1.2933,-1.2966,-1.2979,-1.3001,-1.3007,-1.2992,-1.2995,-1.3,-1.3,-1.3011,-1.3014,-1.3015,-1.3015,-1.3015,0,-1.2656,-1.2669,-1.2705,-1.2718,-1.2735,-1.2756,-1.2772,-1.2797,-1.2813,-1.2845,-1.2855,-1.2881,-1.2904,-1.2942,-1.2968,-1.2993,-1.3001,-1.3003,-1.3005,-1.2998,-1.3002,-1.3001,-1.3003,-1.3002,-1.3002,-1.3002,-1.3002,0,-1.2654,-1.2666,-1.2688,-1.2714,-1.2733,-1.2755,-1.2777,-1.2787,-1.2817,-1.2834,-1.286,-1.2877,-1.2911,-1.2938,-1.2966,-1.2984,-1.2998,-1.3001,-1.3004,-1.2998,-1.2989,-1.2995,-1.2991,-1.3001,-1.3001,-1.3001,-1.3001,-1.3001,-1.265,-1.2663,-1.269,-1.2715,-1.2734,-1.2755,-1.2771,-1.2792,-1.2814,-1.2844,-1.2858,-1.2884,-1.2911,-1.2951,-1.2969,-1.299,-1.2993,-1.2997,-1.2999,-1.2999,-1.2998,-1.2985,-1.2995,-1.2995,-1.2995,-1.2995,-1.2995,0,-1.265,-1.2669,-1.2691,-1.2722,-1.2741,-1.2753,-1.2779,-1.2794,-1.2817,-1.2841,-1.2863,-1.2893,-1.2919,-1.2946,-1.2974,-1.2985,-1.2993,-1.2992,-1.2992,-1.2996,-1.2993,-1.2988,-1.2985,-1.2985,-1.2985,-1.2985,-1.2985,-1.2985,-1.2652,-1.2676,-1.2691,-1.2724,-1.2743,-1.2769,-1.2783,-1.2803,-1.2822,-1.2855,-1.2877,-1.2894,-1.292,-1.295,-1.2974,-1.2981,-1.2991,-1.2988,-1.2998,-1.2995,-1.2996,-1.2996,-1.2992,-1.299,-1.299,-1.2998,-1.2999,-1.2999]}]]